South Bend, IN

2:01 AM EST on December 17, 2017 (GMT -0500)
South Bend Regional

Weather History for KSBN - January, 2014

Change the Weather History Date:

Saturday, January 11, 2014

  Actual Average Record
Temperature  
Mean Temperature 38 °F 24 °F  
Max Temperature 42 °F 31 °F 56 °F (1980)
Min Temperature 33 °F 18 °F -8 °F (1962)
Degree Days  
Heating Degree Days 27 41  
Month to date heating degree days 557 443  
Since 1 July heating degree days 3043 2834  
Cooling Degree Days 0 0  
Month to date cooling degree days 0 0  
Year to date cooling degree days 0 0  
Moisture  
Dew Point 34 °F    
Average Humidity 88    
Maximum Humidity 100    
Minimum Humidity 75    
Precipitation  
Precipitation 0.12 in 0.08 in 0.70 in (1895)
Month to date precipitation 2.10 0.91  
Year to date precipitation 2.10 0.91  
Snow  
Snow 0.00 in 0.70 in 6.60 in (1981)
Month to date snowfall 7.0  
Since 1 July snowfall 29.5  
Snow Depth -    
Sea Level Pressure  
Sea Level Pressure 29.53 in    
Wind  
Wind Speed 12 mph (WSW)    
Max Wind Speed 21 mph    
Max Gust Speed 26 mph    
Visibility 5 miles    
Events Fog , Rain , Snow    
T = Trace of Precipitation, MM = Missing Value Source: NWS Daily Summary

Daily Weather History Graph

Daily Weather History Graph

Search for Another Location

Airport or City:

Trip Planner

Search our weather history database for the weather conditions in past years. The results will help you decide how hot, cold, wet, or windy it might be!

Date:

Astronomy

Jan. 11, 2014 Rise Set
Actual Time 8:11 AM EST 5:35 PM EST
Civil Twilight 7:40 AM EST 6:06 PM EST
Nautical Twilight 7:06 AM EST 6:40 PM EST
Astronomical Twilight 6:32 AM EST 7:14 PM EST
Moon 2:19 PM EST (1/11) 4:14 AM EST (1/11)
Length of Visible Light 10h 25m
Length of Day
9h 23m
Waxing Gibbous, 83% of the Moon is Illuminated
Jan 11
Waxing Gibbous
Jan 15
Full
Jan 24
Last Quarter
Jan 30
New
Feb 6
First Quarter

Hourly Weather History & Observations

Time (EST) Temp. Windchill Dew Point Humidity Pressure Visibility Wind Dir Wind Speed Gust Speed Precip Events Conditions
12:54 AM 41.0 °F 32.8 °F 39.0 °F 93% 29.59 in 9.0 mi SSW 16.1 mph - N/A   Overcast
1:01 AM 42.8 °F 35.8 °F 39.2 °F 87% 29.56 in 8.0 mi SSW 13.8 mph - N/A   Overcast
1:52 AM 41.0 °F 33.9 °F 39.2 °F 93% 29.54 in 2.0 mi SSW 12.7 mph - 0.00 in   Overcast
1:54 AM 41.0 °F 34.3 °F 39.0 °F 93% 29.56 in 1.8 mi SSW 11.5 mph - 0.00 in   Overcast
2:54 AM 39.9 °F 33.9 °F 39.0 °F 97% 29.53 in 1.2 mi SSW 9.2 mph - 0.01 in Rain Light Rain
3:09 AM 41.0 °F 35.2 °F 39.2 °F 93% 29.50 in 0.5 mi South 9.2 mph - 0.00 in Fog Fog
3:46 AM 39.2 °F 32.5 °F 39.2 °F 100% 29.48 in 0.2 mi South 10.4 mph - 0.02 in Fog Fog
3:54 AM 39.9 °F 33.9 °F 39.0 °F 97% 29.49 in 0.2 mi South 9.2 mph - 0.02 in Fog Fog
4:54 AM 41.0 °F 35.8 °F 39.0 °F 93% 29.46 in 0.2 mi SSW 8.1 mph - N/A Fog Fog
5:17 AM 41.0 °F 36.4 °F 39.2 °F 93% 29.44 in 0.5 mi SW 6.9 mph - N/A Fog Fog
5:54 AM 41.0 °F 35.2 °F 39.9 °F 96% 29.45 in 1.0 mi SW 9.2 mph - 0.02 in Rain Light Rain
6:16 AM 41.0 °F 34.7 °F 39.2 °F 93% 29.43 in 2.5 mi SW 10.4 mph - 0.01 in Rain Light Rain
6:54 AM 39.9 °F 33.9 °F 39.0 °F 97% 29.44 in 6.0 mi SW 9.2 mph - 0.04 in Rain Light Rain
7:54 AM 39.0 °F 31.4 °F 37.9 °F 96% 29.43 in 2.5 mi WSW 12.7 mph - 0.02 in   Overcast
8:03 AM 39.2 °F 31.6 °F 37.4 °F 93% 29.41 in 0.8 mi SW 12.7 mph - N/A   Overcast
8:39 AM 37.4 °F 30.3 °F 37.4 °F 100% 29.41 in 0.2 mi WSW 10.4 mph - N/A Fog Fog
8:54 AM 37.9 °F 30.5 °F 36.0 °F 93% 29.43 in 0.2 mi West 11.5 mph - N/A Fog Fog
9:52 AM 37.4 °F 29.8 °F 35.6 °F 93% 29.45 in 0.8 mi West 11.5 mph - N/A   Mist
9:54 AM 37.0 °F 29.3 °F 36.0 °F 96% 29.46 in 1.2 mi West 11.5 mph - N/A   Overcast
10:17 AM 35.6 °F 27.1 °F 35.6 °F 100% 29.46 in 2.5 mi West 12.7 mph - N/A   Overcast
10:44 AM 35.6 °F 25.5 °F 33.8 °F 93% 29.46 in 5.0 mi West 17.3 mph 23.0 mph N/A   Overcast
10:54 AM 35.1 °F 25.9 °F 33.1 °F 92% 29.48 in 7.0 mi West 13.8 mph - N/A   Overcast
11:06 AM 35.6 °F 26.2 °F 33.8 °F 93% 29.46 in 10.0 mi West 15.0 mph - N/A   Overcast
11:54 AM 35.1 °F 25.9 °F 32.0 °F 89% 29.48 in 7.0 mi West 13.8 mph 20.7 mph 0.00 in Rain Light Rain
12:10 PM 33.8 °F 23.5 °F 32.0 °F 93% 29.46 in 2.0 mi West 16.1 mph - 0.00 in Rain Light Rain
12:54 PM 34.0 °F 25.0 °F 30.9 °F 89% 29.48 in 2.0 mi West 12.7 mph - 0.01 in Snow Light Snow
1:47 PM 33.8 °F 23.9 °F 30.2 °F 87% 29.47 in 5.0 mi West 15.0 mph 23.0 mph 0.00 in   Overcast
1:54 PM 34.0 °F 24.2 °F 30.9 °F 89% 29.49 in 6.0 mi West 15.0 mph 21.9 mph 0.00 in   Overcast
1:59 PM 33.8 °F 23.5 °F 30.2 °F 87% 29.47 in 6.0 mi West 16.1 mph 21.9 mph 0.00 in   Overcast
2:00 PM 33.8 °F 23.5 °F 30.2 °F 87% 29.47 in 6.0 mi West 16.1 mph 21.9 mph 0.00 in   Overcast
2:34 PM 33.8 °F 23.2 °F 30.2 °F 87% 29.48 in 5.0 mi West 17.3 mph - 0.00 in   Overcast
2:54 PM 34.0 °F 23.8 °F 30.9 °F 89% 29.51 in 6.0 mi West 16.1 mph - 0.00 in   Overcast
3:54 PM 34.0 °F 22.7 °F 28.9 °F 82% 29.54 in 8.0 mi West 19.6 mph 24.2 mph N/A   Overcast
4:54 PM 34.0 °F 24.2 °F 28.0 °F 79% 29.58 in 9.0 mi West 15.0 mph 24.2 mph N/A   Overcast
5:54 PM 34.0 °F 24.6 °F 27.0 °F 75% 29.61 in 10.0 mi West 13.8 mph - N/A   Overcast
6:54 PM 34.0 °F 25.0 °F 27.0 °F 75% 29.63 in 10.0 mi West 12.7 mph - N/A   Overcast
7:54 PM 34.0 °F 26.0 °F 28.0 °F 79% 29.65 in 8.0 mi West 10.4 mph - N/A   Overcast
8:54 PM 33.1 °F 24.9 °F 28.0 °F 82% 29.69 in 6.0 mi West 10.4 mph - N/A   Haze
9:54 PM 34.0 °F 25.5 °F 28.0 °F 79% 29.71 in 8.0 mi West 11.5 mph 19.6 mph N/A   Overcast
10:54 PM 33.1 °F 23.4 °F 28.0 °F 82% 29.74 in 8.0 mi West 13.8 mph - N/A   Overcast
11:09 PM 33.8 °F 24.8 °F 28.4 °F 81% 29.72 in 8.0 mi West 12.7 mph - N/A   Overcast
11:28 PM 33.8 °F 25.8 °F 28.4 °F 81% 29.73 in 9.0 mi WNW 10.4 mph - N/A   Overcast
11:54 PM 33.1 °F 26.1 °F 28.0 °F 82% 29.76 in 9.0 mi WNW 8.1 mph - N/A   Overcast